Home > Weather > Darwin > Past weeks

Flag for Australia Past Weather in Darwin, Northern Territory, Australia — Yesterday and Last 2 Weeks

Now
86 °F

Sunny.


Feels Like: 88 °F
Forecast: 74 / 90 °F
Wind: 14 mph from Northeast

Location: Darwin Airport

Current Time: Jun 29, 2016 at 6:46:11 PM

Latest Report: Jun 29, 2016 at 5:30 PM


Visibility: 10 mi

Pressure: 29.89 "Hg

Humidity: 52%

Dew Point: 66 °F

Location of DarwinLocation

Past Weather in Darwin — Graph

°F

Darwin Temperature Yesterday

Maximum temperature yesterday: 91 °F (at 2:00 PM)
Minimum temperature yesterday: 75 °F (at 1:00 AM)
Average temperature yesterday: 82 °F

High & Low Weather Summary for the Past Weeks

 TemperatureHumidityPressure
High93 °F (Jun 25, 2:30 PM)94% (Jun 19, 1:30 AM)30.01 "Hg (Jun 19, 1:30 AM)
Low64 °F (Jun 21, 6:00 AM)24% (Jun 21, 3:30 PM)29.77 "Hg (Jun 17, 3:00 PM)
Average80 °F65%29.87 "Hg
* Reported Jun 14 5:30 PM — Jun 29 5:30 PM, Darwin, Weather by CustomWeather, © 2016

Note: Actual official high and low records may vary slightly from our data, if they occured in-between our weather recording intervals... More about our weather records

Advertising

Darwin Weather History for the Previous 24 Hours

Scroll right to see more
 ConditionsComfort  
Time TempWeatherWind HumidityBarometerVisibility
5:30 PM
Wed, Jun 29
86 °FSunny.14 mph52%29.89 "Hg10 mi
4:30 PM90 °FSunny.13 mph41%29.86 "Hg10 mi
4:00 PM90 °FSunny.10 mph33%29.86 "Hg10 mi
3:30 PM90 °FSunny.10 mph33%29.86 "Hg10 mi
3:00 PM91 °FSunny.14 mph32%29.89 "Hg10 mi
2:30 PM90 °FSunny.17 mph33%29.89 "Hg10 mi
1:30 PM90 °FSunny.16 mph36%29.92 "Hg10 mi
12:30 PM88 °FSunny.16 mph38%29.95 "Hg10 mi
11:30 AM86 °FSunny.17 mph35%29.98 "Hg10 mi
11:00 AM82 °FSunny.17 mph40%30.01 "Hg10 mi
10:30 AM81 °FSunny.18 mph42%30.01 "Hg10 mi
10:00 AM79 °FSunny.21 mph45%30.01 "Hg10 mi
9:30 AM79 °FSunny.17 mph48%30.01 "Hg10 mi
8:30 AM75 °FSunny.17 mph61%30.01 "Hg10 mi
8:00 AM75 °FSunny.15 mph61%30.01 "Hg10 mi
7:30 AM73 °FClear.12 mph65%30.01 "Hg10 mi
7:00 AM73 °FClear.10 mph69%30.01 "Hg10 mi
6:30 AM73 °FClear.12 mph69%29.98 "Hg10 mi
5:30 AM75 °FClear.13 mph65%29.98 "Hg10 mi
4:30 AM75 °FClear.14 mph65%29.95 "HgN/A
4:00 AM75 °FClear.15 mph65%29.98 "HgN/A
3:30 AM77 °FClear.17 mph57%29.95 "HgN/A
3:00 AM77 °FClear.17 mph57%29.98 "HgN/A
2:30 AM79 °FClear.13 mph51%29.98 "HgN/A
2:00 AM79 °FClear.9 mph54%29.98 "Hg10 mi
1:30 AM79 °FClear.7 mph61%29.98 "Hg10 mi
1:00 AM79 °FClear.8 mph74%29.98 "Hg10 mi
12:30 AM77 °FClear.7 mph89%29.98 "Hg10 mi
12:00 AM79 °FClear.8 mph84%29.98 "Hg10 mi
11:30 PM
Tue, Jun 28
79 °FClear.8 mph79%29.98 "Hg10 mi
11:00 PM81 °FClear.8 mph74%29.98 "Hg10 mi
10:30 PM81 °FClear.7 mph74%29.98 "Hg10 mi
10:00 PM79 °FPassing clouds.5 mph74%29.95 "HgN/A
9:30 PM79 °FClear.5 mph74%29.95 "Hg10 mi
9:00 PM79 °FClear.6 mph74%29.95 "Hg10 mi
8:30 PM81 °FClear.7 mph70%29.95 "Hg10 mi
8:00 PM81 °FClear.6 mph74%29.92 "Hg10 mi
7:30 PM82 °FClear.7 mph70%29.92 "Hg10 mi
7:00 PM82 °FSunny.9 mph70%29.92 "Hg10 mi
6:30 PM86 °FSunny.10 mph59%29.89 "Hg10 mi
6:00 PM90 °FSunny.10 mph41%29.89 "Hg10 mi
Weather by CustomWeather, © 2016

See weather overviewHow to use our weather pages